Shannon, Ireland

1:04 AM IST on July 23, 2017 (GMT +0100)
Shannon

Weather History for EINN - February, 2011

Change the Weather History Date:

Sunday, February 6, 2011

  Actual Average Record
Temperature  
Mean Temperature 48 °F -  
Max Temperature 53 °F 48 °F 57 °F (1997)
Min Temperature 44 °F 37 °F 28 °F (2007)
Degree Days  
Heating Degree Days 16    
Moisture  
Dew Point 46 °F    
Average Humidity 95    
Maximum Humidity 100    
Minimum Humidity 87    
Precipitation  
Precipitation 0.31 in 0.09 in - ()
Sea Level Pressure  
Sea Level Pressure 29.76 in    
Wind  
Wind Speed 7 mph ()    
Max Wind Speed 32 mph    
Max Gust Speed 45 mph    
Visibility 4.8 miles    
Events Fog , Rain    
Averages and records for this station are not official NWS values.
T = Trace of Precipitation, MM = Missing Value Source: Averaged Metar Reports

Daily Weather History Graph

Daily Weather History Graph

Search for Another Location

Airport or City:

Trip Planner

Search our weather history database for the weather conditions in past years. The results will help you decide how hot, cold, wet, or windy it might be!

Date:

Astronomy

Feb. 06, 2011 Rise Set
Actual Time 8:10 AM GMT 5:30 PM GMT
Civil Twilight 7:33 AM GMT 6:06 PM GMT
Nautical Twilight 6:52 AM GMT 6:47 PM GMT
Astronomical Twilight 6:12 AM GMT 7:27 PM GMT
Moon 8:47 AM GMT (2/6) 9:41 PM GMT (2/6)
Length of Visible Light 10h 33m
Length of Day
9h 19m
Waxing Crescent, 10% of the Moon is Illuminated
Feb 6
Waxing Crescent
Feb 11
First Quarter
Feb 18
Full
Feb 24
Last Quarter
Mar 4
New

Hourly Weather History & Observations

Time (GMT) Temp. Windchill Dew Point Humidity Pressure Visibility Wind Dir Wind Speed Gust Speed Precip Events Conditions
12:00 AM 45 °F - 45 °F 99% 29.86 in 7 mi Calm Calm - - Rain Light Rain
12:00 AM 44.6 °F - 44.6 °F 100% 29.86 in 6.2 mi Calm Calm - N/A Rain Light Rain
12:30 AM 44.6 °F - 44.6 °F 100% 29.86 in 6.2 mi NE 2.3 mph - N/A Rain Light Rain
1:00 AM 44.6 °F - 44.6 °F 100% 29.86 in 5.0 mi NE 1.2 mph - N/A Rain Light Rain
1:30 AM 44.6 °F - 44.6 °F 100% 29.83 in 5.0 mi East 1.2 mph - N/A Rain Light Rain
2:00 AM 44.6 °F - 44.6 °F 100% 29.83 in 5.0 mi East 1.2 mph - N/A Rain Light Rain
2:30 AM 44.6 °F - 44.6 °F 100% 29.80 in 5.0 mi ENE 2.3 mph - N/A Rain Light Rain
3:00 AM 44.6 °F 42.2 °F 44.6 °F 100% 29.80 in 0.6 mi ESE 4.6 mph - N/A Fog Light Fog
3:30 AM 44.6 °F 43.1 °F 44.6 °F 100% 29.80 in 0.6 mi East 3.5 mph - N/A Fog Light Fog
4:00 AM 44.6 °F 42.2 °F 44.6 °F 100% 29.77 in 0.7 mi East 4.6 mph - N/A Rain Light Rain
4:30 AM 44.6 °F 42.2 °F 44.6 °F 100% 29.77 in 0.7 mi East 4.6 mph - N/A Rain Light Rain
5:00 AM 44.6 °F 41.4 °F 44.6 °F 100% 29.74 in 0.9 mi North 5.8 mph - N/A Rain Light Rain
5:30 AM 44.6 °F 41.4 °F 44.6 °F 100% 29.74 in 1.2 mi NE 5.8 mph - N/A Rain Light Rain
6:00 AM 46 °F - 46 °F 99% 29.74 in 1 mi East 8.9 mph - - Rain Light Rain
6:00 AM 46.4 °F 42.4 °F 46.4 °F 100% 29.71 in 1.2 mi East 8.1 mph - N/A Rain Light Rain
6:30 AM 50.0 °F - 50.0 °F 100% 29.71 in 3.1 mi South 11.5 mph - N/A Rain Light Rain
7:00 AM 51.8 °F - 51.8 °F 100% 29.71 in 4.3 mi SSW 21.9 mph - N/A Rain Light Rain
7:30 AM 51.8 °F - 51.8 °F 100% 29.68 in 4.3 mi SSW 21.9 mph - N/A Rain Light Rain
8:00 AM 51.8 °F - 50.0 °F 94% 29.68 in 3.7 mi SSW 21.9 mph - N/A Rain Light Rain
8:30 AM 51.8 °F - 50.0 °F 94% 29.68 in 5.0 mi South 18.4 mph - N/A Rain Light Rain
9:00 AM 51.8 °F - 50.0 °F 94% 29.68 in 5.0 mi SSW 23.0 mph - N/A Rain Light Rain
9:30 AM 51.8 °F - 50.0 °F 94% 29.68 in 5.0 mi SSW 27.6 mph - N/A   Mostly Cloudy
10:00 AM 53.6 °F - 50.0 °F 88% 29.68 in 3.1 mi SSW 29.9 mph 44.9 mph N/A Rain Light Rain
10:30 AM 53.6 °F - 50.0 °F 88% 29.68 in 6.2 mi SW 32.2 mph 43.7 mph N/A   Mostly Cloudy
11:00 AM 50.0 °F - 48.2 °F 94% 29.74 in 6.2 mi WSW 19.6 mph - N/A   Mostly Cloudy
11:30 AM 48.2 °F - 44.6 °F 87% 29.77 in 6.2 mi NW 9.2 mph - N/A   Mostly Cloudy
12:00 PM 47 °F - 45 °F 90% 29.82 in 19 mi NW 13.4 mph - -   Partly Cloudy
12:00 PM 46.4 °F 40.7 °F 44.6 °F 93% 29.80 in 6.2 mi NW 12.7 mph - N/A   Mostly Cloudy
12:30 PM 46.4 °F 42.4 °F 44.6 °F 93% 29.83 in 6.2 mi NW 8.1 mph - N/A   Mostly Cloudy
1:00 PM 46.4 °F 43.5 °F 44.6 °F 93% 29.83 in 6.2 mi WNW 5.8 mph - N/A   Mostly Cloudy
1:30 PM 46.4 °F 43.5 °F 44.6 °F 93% 29.83 in 6.2 mi West 5.8 mph - N/A   Mostly Cloudy
2:00 PM 46.4 °F 42.9 °F 44.6 °F 93% 29.83 in 6.2 mi West 6.9 mph - N/A   Mostly Cloudy
2:30 PM 46.4 °F 42.9 °F 42.8 °F 87% 29.83 in 6.2 mi WSW 6.9 mph - N/A   Mostly Cloudy
3:00 PM 46.4 °F 42.9 °F 42.8 °F 87% 29.83 in 6.2 mi WSW 6.9 mph - N/A   Mostly Cloudy
3:30 PM 46.4 °F 44.3 °F 42.8 °F 87% 29.83 in 6.2 mi SW 4.6 mph - N/A   Mostly Cloudy
4:00 PM 46.4 °F 44.3 °F 42.8 °F 87% 29.83 in 6.2 mi SSW 4.6 mph - N/A   Mostly Cloudy
4:30 PM 46.4 °F 45.2 °F 42.8 °F 87% 29.83 in 6.2 mi South 3.5 mph - N/A Rain Light Rain
5:00 PM 46.4 °F 45.2 °F 42.8 °F 87% 29.83 in 6.2 mi South 3.5 mph - N/A Rain Light Rain
5:30 PM 44.6 °F - 42.8 °F 93% 29.83 in 6.2 mi ESE 2.3 mph - N/A Rain Light Rain
6:00 PM 45 °F - 43 °F 89% 29.82 in 6 mi ENE 4.5 mph - - Rain Light Rain
6:00 PM 44.6 °F 43.1 °F 42.8 °F 93% 29.80 in 6.2 mi ENE 3.5 mph - N/A Rain Light Rain
6:30 PM 44.6 °F 43.1 °F 42.8 °F 93% 29.80 in 6.2 mi ENE 3.5 mph - N/A Rain Light Rain
7:00 PM 44.6 °F 41.4 °F 42.8 °F 93% 29.80 in 6.2 mi East 5.8 mph - N/A Rain Light Rain
7:30 PM 44.6 °F 40.7 °F 42.8 °F 93% 29.77 in 3.7 mi East 6.9 mph - N/A Rain Light Rain
8:00 PM 44.6 °F 40.7 °F 44.6 °F 100% 29.74 in 3.7 mi East 6.9 mph - N/A Rain Light Rain
8:30 PM 44.6 °F 38.8 °F 44.6 °F 100% 29.71 in 2.5 mi East 11.5 mph - N/A Rain Light Rain
9:00 PM 44.6 °F 38.4 °F 44.6 °F 100% 29.68 in 2.5 mi East 12.7 mph - N/A Rain Light Rain
9:30 PM 46.4 °F 42.4 °F 46.4 °F 100% 29.68 in 5.0 mi SE 8.1 mph - N/A Rain Light Rain
10:00 PM 48.2 °F - 48.2 °F 100% 29.65 in 5.0 mi SSE 13.8 mph - N/A Rain Light Rain
10:30 PM 50.0 °F - 48.2 °F 94% 29.65 in 3.1 mi SSE 15.0 mph - N/A Rain Light Rain
11:00 PM 50.0 °F - 48.2 °F 94% 29.62 in 3.1 mi SSE 15.0 mph - N/A Rain Rain
11:30 PM 50.0 °F - 48.2 °F 94% 29.59 in 6.2 mi SSE 18.4 mph - N/A Rain Light Rain